[[{"header":{"parameterUnit":"m.s-1","parameterCategory":2,"la1":30.2991,"la2":30.254,"lo1":-89.0895,"lo2":-89.0444,"dy":0.0017,"dx":0.0017,"nx":28,"ny":28,"refTime":"2024-02-05T03:00:00:Z","depth":"0","parameterNumber":2,"parameterNumberName":"U-component_of_CURRENTS"},"data":[0,0,0,0,0,0,0,0,0,0,0,0,0,0,0,0,0,0,0,0,0,0,0,0,0,0,0,0,0,0,0,0,0,0,0,0,0,0,0,0,0,0,0,0,0,0,0,0,0,0,0,0,0,0,0,0,0,0,0.3037,0.3038,0,0.3104,0.3105,0.3105,0.3068,0.3067,0.3066,0.3065,0.3057,0.3058,0.3059,0,0,0,0,0,0,0,0,0,0,0,0,0,0.2904,0.2906,0.3037,0.3038,0.304,0.3104,0.3105,0.3105,0.3068,0.3067,0.3065,0.3064,0.3057,0.3058,0.3059,0,0,0,0,0,0,0,0,0,0,0,0,0,0.2959,0.2907,0.3036,0.3034,0.3035,0.3104,0.3105,0.3105,0.3069,0.3067,0.3065,0.3063,0.3057,0.3058,0.306,0.3105,0,0,0.3064,0.3065,0,0,0,0,0,0,0,0,0.2956,0.2963,0.3033,0.3034,0.3036,0.3082,0.3056,0.3104,0.3069,0.3049,0.3065,0.3062,0.3065,0.3065,0.3073,0.3105,0.3104,0.3064,0.3065,0.3066,0.3066,0,0,0,0,0,0,0,0.2952,0.296,0.3056,0.3035,0.3037,0.304,0.3045,0.3065,0.3059,0.305,0.305,0.3069,0.3063,0.3072,0.3073,0.3104,0.3064,0.3065,0.3066,0.3067,0.3182,0.3184,0,0,0,0,0,0,0.2959,0.2957,0.3054,0.3059,0.2998,0.3044,0.3049,0.3063,0.3061,0.3061,0.307,0.3067,0.3071,0.3071,0.3072,0.312,0.3066,0.3067,0.3068,0.3179,0.3182,0.3184,0,0,0,0,0,0,0.2955,0.2967,0.3052,0.3015,0.3027,0.3049,0.3065,0.3066,0.3081,0.3078,0.3075,0.3085,0.3069,0.307,0.3097,0.312,0.3067,0.3069,0.3177,0.318,0.3183,0.322,0,0,0,0,0,0,0.2951,0.2965,0.2971,0.3016,0.303,0.3091,0.3068,0.3069,0.3098,0.3094,0.309,0.3087,0.3068,0.3095,0.3098,0.3121,0.307,0.3174,0.3178,0.3182,0.3216,0.3224,0.3231,0,0,0,0,0,0.2946,0.2962,0.297,0.2982,0.3039,0.3093,0.31,0.3105,0.3101,0.311,0.3112,0.3087,0.3123,0.3098,0.3101,0.3125,0.3172,0.3177,0.3182,0.3212,0.3222,0.3231,0,0,0,0,0,0,0.2908,0.2962,0.2971,0.3002,0.3047,0.3089,0.3103,0.312,0.3133,0.3122,0.3116,0.3114,0.3144,0.3143,0.3115,0.3174,0.3145,0.3151,0.3167,0.3176,0.3184,0.3206,0.3071,0,0,0,0,0,0.2907,0.2931,0.2987,0.3015,0.3035,0.3075,0.3098,0.3108,0.3133,0.3136,0.3145,0.3154,0.3171,0.3178,0.3189,0.3227,0.3251,0.3247,0.3254,0.326,0.3284,0.3343,0.3357,0.3201,0.3201,0.3201,0,0,0.2904,0.2938,0.2952,0.3009,0.3039,0.3083,0.3082,0.312,0.3155,0.3136,0.3176,0.3181,0.3189,0.322,0.3235,0.3218,0.332,0.3267,0.3271,0.3293,0.335,0.3365,0.3378,0.3204,0.3203,0.3203,0,0,0.2918,0.2938,0.2964,0.3003,0.3058,0.3087,0.3106,0.3159,0.3171,0.3217,0.3214,0.3244,0.3267,0.3284,0.3293,0.3361,0.3357,0.336,0.3413,0.3469,0.3482,0.3494,0.3545,0.3561,0.3362,0.3363,0.3363,0,0.2905,0.2951,0.2982,0.3023,0.3058,0.3096,0.3138,0.317,0.3226,0.3253,0.3228,0.3302,0.3301,0.3363,0.338,0.3377,0.3407,0.3369,0.3478,0.349,0.3502,0.3551,0.3568,0.3365,0.3365,0.3364,0.3364,0,0.2946,0.2981,0.3003,0.3065,0.3107,0.3146,0.3203,0.3244,0.3265,0.3301,0.3362,0.3372,0.342,0.3423,0.3418,0.3508,0.3502,0.3477,0.3449,0.352,0.3567,0.3585,0.3368,0.3367,0.3367,0.3366,0,0,0.2912,0.3008,0.3011,0.3049,0.3127,0.3167,0.3234,0.3308,0.3356,0.3397,0.3469,0.3502,0.3518,0.3535,0.354,0.3589,0.3688,0.3573,0.3575,0.3615,0.3819,0.3794,0.381,0.3677,0.3681,0.3683,0.3819,0,0.2928,0.2999,0.3048,0.3122,0.3167,0.3226,0.329,0.3361,0.3406,0.3484,0.3522,0.358,0.3558,0.3582,0.3634,0.368,0.3736,0.3654,0.3754,0.3758,0.3719,0.383,0.3704,0.3813,0.3836,0.3838,0.384,0,0.2944,0.2994,0.3059,0.3159,0.3182,0.3231,0.3332,0.3393,0.3506,0.3544,0.3618,0.3656,0.3758,0.3713,0.3842,0.3791,0.3822,0.3844,0.3849,0.383,0.3766,0.3749,0.3843,0.3787,0.3867,0.3865,0.3863,0,0.2902,0.2999,0.3047,0.308,0.3198,0.3237,0.3299,0.3406,0.3469,0.3592,0.3653,0.3759,0.3825,0.389,0.3958,0.3908,0.4095,0.402,0.4031,0.4028,0.3945,0.393,0.3991,0.4121,0.412,0.412,0.412,0,0.2896,0.2938,0.3028,0.3055,0.3122,0.3211,0.3287,0.3366,0.3491,0.3585,0.3679,0.378,0.3874,0.3989,0.402,0.4106,0.415,0.4082,0.4079,0.3954,0.394,0.3904,0.3862,0.4125,0.4124,0.4123,0.4122,0,0.2856,0.2908,0.2972,0.3074,0.3104,0.315,0.3274,0.3339,0.3458,0.3589,0.3642,0.3828,0.3981,0.4076,0.4205,0.4186,0.4162,0.4275,0.4128,0.4104,0.4009,0.3972,0.3875,0.3754,0.4293,0.4294,0.4294,0,0.2849,0.2875,0.296,0.2991,0.3034,0.311,0.3172,0.3302,0.338,0.3619,0.3689,0.3895,0.4029,0.4224,0.4255,0.4332,0.4205,0.4235,0.4107,0.4033,0.399,0.38,0.3689,0.4013,0.4011,0.4009,0.4008,0,0.2837,0.2855,0.2895,0.2947,0.2998,0.3073,0.3167,0.3221,0.3396,0.3507,0.3701,0.3837,0.4066,0.4117,0.4231,0.4246,0.4043,0.4202,0.4166,0.3831,0.3589,0.3459,0.3896,0.3994,0.3995,0.3996,0.3997,0.3998,0.281,0.2819,0.2851,0.2897,0.2951,0.301,0.3022,0.3132,0.3228,0.3352,0.3582,0.3711,0.3922,0.4068,0.4076,0.4035,0.3955,0.3922,0.3905,0.3735,0.355,0.3966,0.4028,0.4029,0.403,0.4032,0.4033,0,0.2754,0.2765,0.281,0.2827,0.2841,0.2916,0.2996,0.2975,0.3007,0.3204,0.3316,0.3532,0.3625,0.3782,0.3882,0.3781,0.3546,0.3687,0.34,0.3318,0.3751,0.3674,0.3612,0.3612,0.3612,0.3612,0.3612,0.3612,0.2718,0.2705,0.2722,0.27,0.2723,0.2686,0.2701,0.2687,0.2774,0.2861,0.2986,0.3153,0.3521,0.3741,0.3737,0.3629,0.335,0.3195,0.3167,0.3516,0.3535,0.3554,0.3473,0.3369,0.3369,0.2578,0.2573,0.2569]},{"header":{"parameterUnit":"m.s-1","parameterCategory":2,"la1":30.2991,"la2":30.254,"lo1":-89.0895,"lo2":-89.0444,"dy":0.0017,"dx":0.0017,"nx":28,"ny":28,"refTime":"2024-02-05T03:00:00:Z","depth":"0","parameterNumber":3,"parameterNumberName":"V-component_of_CURRENTS"},"data":[0,0,0,0,0,0,0,0,0,0,0,0,0,0,0,0,0,0,0,0,0,0,0,0,0,0,0,0,0,0,0,0,0,0,0,0,0,0,0,0,0,0,0,0,0,0,0,0,0,0,0,0,0,0,0,0,0,0,-0.0495,-0.0497,0,-0.0616,-0.0616,-0.0616,-0.0634,-0.0634,-0.0634,-0.0634,-0.0771,-0.0775,-0.0779,0,0,0,0,0,0,0,0,0,0,0,0,0,-0.0343,-0.0344,-0.0494,-0.0497,-0.05,-0.0616,-0.0616,-0.0617,-0.0634,-0.0634,-0.0634,-0.0634,-0.077,-0.0774,-0.0779,0,0,0,0,0,0,0,0,0,0,0,0,0,-0.042,-0.0345,-0.0494,-0.0531,-0.0536,-0.0615,-0.0616,-0.0617,-0.0634,-0.0634,-0.0634,-0.0634,-0.0769,-0.0774,-0.078,-0.0815,0,0,-0.0796,-0.0799,0,0,0,0,0,0,0,0,-0.0415,-0.0423,-0.0523,-0.0529,-0.0535,-0.062,-0.0614,-0.0688,-0.0634,-0.0584,-0.0634,-0.0634,-0.073,-0.0739,-0.0745,-0.0821,-0.0827,-0.0797,-0.08,-0.0803,-0.0804,0,0,0,0,0,0,0,-0.041,-0.0419,-0.053,-0.0526,-0.0533,-0.0565,-0.0573,-0.0627,-0.0647,-0.0589,-0.0593,-0.0625,-0.0732,-0.0739,-0.0748,-0.0829,-0.0797,-0.0802,-0.0805,-0.0807,-0.0919,-0.0918,0,0,0,0,0,0,-0.0415,-0.0414,-0.0527,-0.0535,-0.0487,-0.0568,-0.0577,-0.0583,-0.0646,-0.0659,-0.0625,-0.0626,-0.073,-0.0742,-0.0753,-0.0765,-0.0803,-0.0808,-0.0811,-0.0919,-0.0919,-0.0918,0,0,0,0,0,0,-0.0411,-0.0423,-0.0522,-0.0488,-0.0505,-0.0571,-0.0577,-0.0586,-0.0597,-0.0676,-0.0687,-0.063,-0.073,-0.0745,-0.0774,-0.0772,-0.081,-0.0815,-0.092,-0.0919,-0.0919,-0.0811,0,0,0,0,0,0,-0.0405,-0.042,-0.0413,-0.0488,-0.0507,-0.055,-0.0579,-0.0588,-0.0623,-0.0624,-0.0684,-0.0696,-0.0731,-0.0765,-0.078,-0.078,-0.082,-0.092,-0.0919,-0.0919,-0.0815,-0.0807,-0.08,0,0,0,0,0,-0.0399,-0.0387,-0.0411,-0.0426,-0.0499,-0.055,-0.056,-0.0602,-0.0623,-0.0612,-0.0647,-0.0695,-0.0772,-0.0769,-0.0786,-0.0788,-0.092,-0.092,-0.0919,-0.0819,-0.0809,-0.08,0,0,0,0,0,0,-0.0317,-0.0392,-0.0419,-0.043,-0.0483,-0.0557,-0.0559,-0.0602,-0.0621,-0.0617,-0.0686,-0.0699,-0.0722,-0.0773,-0.0768,-0.0819,-0.0857,-0.086,-0.0776,-0.0767,-0.076,-0.0737,-0.0824,0,0,0,0,0,-0.0301,-0.031,-0.0391,-0.0401,-0.042,-0.0491,-0.0517,-0.0547,-0.0591,-0.0599,-0.0653,-0.0701,-0.0734,-0.0761,-0.0797,-0.0831,-0.0866,-0.0846,-0.0839,-0.0832,-0.0826,-0.088,-0.0876,-0.0916,-0.0916,-0.0916,0,0,-0.0281,-0.0321,-0.033,-0.0385,-0.0423,-0.0438,-0.0501,-0.0529,-0.0539,-0.0614,-0.0628,-0.0674,-0.0734,-0.0752,-0.0771,-0.0795,-0.0832,-0.0831,-0.0824,-0.0822,-0.0879,-0.0875,-0.0872,-0.0915,-0.0915,-0.0915,0,0,-0.0242,-0.0269,-0.0262,-0.0294,-0.0354,-0.0393,-0.0403,-0.0474,-0.0491,-0.0522,-0.0569,-0.0611,-0.0678,-0.0714,-0.0742,-0.0725,-0.0783,-0.0744,-0.0698,-0.075,-0.0747,-0.0745,-0.0746,-0.0745,-0.0748,-0.0748,-0.0748,0,-0.0207,-0.0215,-0.0269,-0.0269,-0.0292,-0.037,-0.0365,-0.0394,-0.0467,-0.0481,-0.0508,-0.0601,-0.0658,-0.0685,-0.0673,-0.0708,-0.0728,-0.0722,-0.0738,-0.0737,-0.0737,-0.074,-0.074,-0.0743,-0.0744,-0.0744,-0.0745,0,-0.0168,-0.0173,-0.0168,-0.0191,-0.0214,-0.0221,-0.028,-0.0296,-0.034,-0.0387,-0.0426,-0.0501,-0.0559,-0.0589,-0.0625,-0.0653,-0.066,-0.0713,-0.0755,-0.0726,-0.0731,-0.0733,-0.0735,-0.0737,-0.0739,-0.074,0,0,-0.0095,-0.0131,-0.0127,-0.0125,-0.017,-0.0183,-0.0185,-0.0217,-0.0215,-0.0292,-0.0304,-0.0382,-0.0439,-0.0475,-0.0541,-0.0594,-0.0604,-0.0645,-0.065,-0.0633,-0.0675,-0.0645,-0.0645,-0.0658,-0.0659,-0.0659,-0.0664,0,-0.0045,-0.0022,-0.0058,-0.0036,-0.003,-0.0083,-0.0076,-0.0111,-0.0154,-0.018,-0.0272,-0.0306,-0.0391,-0.0413,-0.048,-0.0575,-0.0611,-0.0595,-0.0718,-0.072,-0.0688,-0.0648,-0.061,-0.061,-0.0667,-0.0668,-0.0668,0,0.0006,0.0013,0.0049,0.0043,0.0045,0.0053,0.0053,0.0044,-0.0006,-0.0042,-0.0106,-0.0177,-0.0257,-0.0337,-0.0482,-0.0464,-0.0553,-0.0631,-0.0635,-0.0649,-0.0696,-0.0659,-0.0613,-0.082,-0.0672,-0.0672,-0.0671,0,0.008,0.0086,0.0123,0.012,0.0108,0.0126,0.0121,0.009,0.0102,0.0044,0.0044,-0.0073,-0.0111,-0.0262,-0.0419,-0.0451,-0.0565,-0.0637,-0.0685,-0.0682,-0.0696,-0.0694,-0.0859,-0.0728,-0.0728,-0.0728,-0.0728,0,0.0141,0.0165,0.0164,0.0183,0.0238,0.0202,0.0253,0.0227,0.0217,0.026,0.0121,0.0136,-0.0095,-0.0189,-0.0363,-0.0507,-0.0524,-0.0655,-0.0685,-0.0653,-0.0646,-0.0868,-0.0986,-0.0728,-0.0728,-0.0728,-0.0728,0,0.0202,0.0201,0.0242,0.0258,0.0271,0.031,0.0342,0.038,0.0353,0.0406,0.04,0.0303,0.0194,-0.0022,-0.0237,-0.04,-0.0668,-0.0616,-0.0531,-0.0551,-0.08,-0.0912,-0.1089,-0.1165,-0.0672,-0.0671,-0.067,0,0.023,0.0262,0.0309,0.0349,0.036,0.0411,0.0456,0.0446,0.05,0.053,0.0577,0.0499,0.0487,0.0185,-0.0125,-0.0394,-0.0609,-0.0542,-0.0616,-0.079,-0.0939,-0.1029,-0.1088,-0.0578,-0.0577,-0.0576,-0.0575,0,0.0288,0.0312,0.0352,0.0442,0.05,0.0567,0.0636,0.071,0.074,0.0813,0.0913,0.0913,0.0638,0.0384,-0.0003,-0.0208,-0.0673,-0.0527,-0.0756,-0.0907,-0.0971,-0.1065,-0.0571,-0.0566,-0.0567,-0.0567,-0.0568,-0.0568,0.0338,0.0383,0.0455,0.0543,0.0621,0.0739,0.083,0.0934,0.1078,0.1222,0.1194,0.1252,0.0839,0.0322,-0.0006,-0.0573,-0.0606,-0.0759,-0.088,-0.0957,-0.1038,-0.0487,-0.0496,-0.0496,-0.0497,-0.0497,-0.0497,0,0.0406,0.0462,0.0549,0.0669,0.079,0.0806,0.0969,0.1087,0.1311,0.1442,0.1546,0.1425,0.0907,0.0351,-0.0422,-0.086,-0.1034,-0.1105,-0.1263,-0.1309,-0.0859,-0.0865,-0.0895,-0.0895,-0.0894,-0.0894,-0.0894,-0.0894,0.0446,0.0546,0.0596,0.0806,0.0901,0.1076,0.119,0.1372,0.1516,0.173,0.1807,0.1803,0.1423,-0.0029,-0.104,-0.128,-0.1597,-0.1655,-0.183,-0.1573,-0.1552,-0.1532,-0.1568,-0.1745,-0.1746,-0.2219,-0.2224,-0.2227]}],[{"header":{"parameterUnit":"m.s-1","parameterCategory":2,"la1":30.2991,"la2":30.254,"lo1":-89.0895,"lo2":-89.0444,"dy":0.0017,"dx":0.0017,"nx":28,"ny":28,"refTime":"2024-02-05T03:00:00:Z","depth":"2","parameterNumber":2,"parameterNumberName":"U-component_of_CURRENTS"},"data":[0,0,0,0,0,0,0,0,0,0,0,0,0,0,0,0,0,0,0,0,0,0,0,0,0,0,0,0,0,0,0,0,0,0,0,0,0,0,0,0,0,0,0,0,0,0,0,0,0,0,0,0,0,0,0,0,0,0,0.2508,0.2507,0,0.2554,0.2556,0.2558,0.2638,0.2638,0.2638,0.2639,0.2715,0.2717,0.2718,0,0,0,0,0,0,0,0,0,0,0,0,0,0.2511,0.2512,0.2508,0.2507,0.2507,0.2554,0.2556,0.2558,0.2638,0.2638,0.2638,0.2639,0.2714,0.2716,0.2719,0,0,0,0,0,0,0,0,0,0,0,0,0,0.2543,0.2512,0.2508,0.2541,0.2544,0.2553,0.2556,0.2559,0.2638,0.2638,0.2638,0.2639,0.2713,0.2716,0.2719,0.2732,0,0,0.2728,0.2729,0,0,0,0,0,0,0,0,0.2541,0.2545,0.2537,0.2539,0.2541,0.2577,0.2584,0.2613,0.2638,0.2618,0.2639,0.2639,0.2662,0.2669,0.2698,0.2735,0.2739,0.2728,0.273,0.2731,0.2732,0,0,0,0,0,0,0,0.2539,0.2543,0.2542,0.2536,0.2538,0.256,0.2566,0.2591,0.265,0.262,0.2622,0.2603,0.2665,0.2695,0.27,0.274,0.2728,0.273,0.2732,0.2733,0.2854,0.2855,0,0,0,0,0,0,0.2502,0.2541,0.254,0.2541,0.2525,0.2558,0.2566,0.2578,0.2649,0.2656,0.2603,0.2606,0.269,0.2697,0.2703,0.2791,0.2731,0.2733,0.2735,0.2852,0.2854,0.2855,0,0,0,0,0,0,0.2502,0.2503,0.2538,0.2528,0.2532,0.2556,0.257,0.2578,0.2635,0.2633,0.2644,0.2651,0.269,0.2699,0.2756,0.2792,0.2735,0.2737,0.285,0.2853,0.2855,0.2923,0,0,0,0,0,0,0.2503,0.2504,0.2515,0.2527,0.2531,0.259,0.2568,0.2579,0.2613,0.262,0.2677,0.2683,0.2691,0.2752,0.2759,0.2795,0.2739,0.2848,0.2851,0.2854,0.2919,0.2928,0.2935,0,0,0,0,0,0.2504,0.2515,0.2516,0.2515,0.2542,0.2591,0.26,0.2625,0.2615,0.2673,0.269,0.2683,0.2774,0.2756,0.2763,0.2801,0.2847,0.285,0.2854,0.2916,0.2926,0.2935,0,0,0,0,0,0,0.2517,0.2523,0.2525,0.2537,0.2577,0.26,0.2629,0.264,0.2701,0.2702,0.2709,0.2718,0.2777,0.278,0.2759,0.2842,0.2807,0.2812,0.2851,0.2861,0.2869,0.2867,0.2742,0,0,0,0,0,0.2519,0.2538,0.2555,0.2569,0.259,0.2616,0.2636,0.2658,0.2691,0.2721,0.2737,0.2759,0.2793,0.2821,0.2845,0.2899,0.2907,0.2925,0.2933,0.2939,0.2943,0.2993,0.3006,0.2867,0.2867,0.2866,0,0,0.2523,0.2524,0.2535,0.2573,0.2602,0.264,0.2637,0.2683,0.2718,0.2714,0.277,0.2787,0.2811,0.287,0.2896,0.2882,0.2986,0.2944,0.2949,0.2949,0.2998,0.3012,0.3024,0.2869,0.2868,0.2868,0,0,0.2533,0.2553,0.2578,0.2615,0.265,0.2673,0.2692,0.2732,0.277,0.2819,0.2818,0.2858,0.2904,0.2932,0.2951,0.3016,0.302,0.3026,0.3077,0.3126,0.3138,0.3148,0.3186,0.3199,0.3038,0.3038,0.3038,0,0.2539,0.2564,0.2597,0.2629,0.2651,0.2689,0.2732,0.2777,0.2825,0.2852,0.2846,0.2914,0.2931,0.3005,0.303,0.3035,0.3063,0.304,0.3137,0.3148,0.3157,0.3193,0.3206,0.3042,0.3041,0.3041,0.3041,0,0.2563,0.2595,0.2617,0.2667,0.2712,0.2758,0.2807,0.2858,0.288,0.2905,0.298,0.3009,0.3056,0.3066,0.3072,0.3155,0.3153,0.3136,0.3113,0.3176,0.3209,0.3222,0.3047,0.3046,0.3045,0.3044,0,0,0.2545,0.2621,0.2626,0.2661,0.2737,0.2773,0.2845,0.292,0.2964,0.3011,0.3073,0.3126,0.3145,0.3167,0.3187,0.3226,0.3317,0.3221,0.3222,0.3258,0.3435,0.3409,0.3421,0.333,0.3332,0.3334,0.3434,0,0.2561,0.2615,0.2653,0.2721,0.2767,0.2828,0.2888,0.2957,0.302,0.3091,0.3138,0.32,0.3189,0.3226,0.3272,0.331,0.3355,0.3292,0.3368,0.337,0.334,0.3436,0.3177,0.3243,0.3447,0.3449,0.345,0,0.2567,0.2607,0.2672,0.2755,0.2781,0.2825,0.2932,0.2998,0.3108,0.3158,0.324,0.3279,0.337,0.3336,0.3446,0.3415,0.3436,0.3446,0.345,0.3409,0.3369,0.3212,0.3258,0.3472,0.347,0.3469,0.3467,0,0.253,0.2615,0.2664,0.2694,0.2796,0.284,0.2903,0.3013,0.3085,0.3218,0.3277,0.3379,0.3451,0.3497,0.3546,0.3511,0.3648,0.3597,0.3587,0.3585,0.3369,0.3343,0.3662,0.3662,0.3662,0.3662,0.3661,0,0.2519,0.2561,0.2651,0.2677,0.2742,0.2828,0.2919,0.2994,0.3127,0.3216,0.3318,0.3405,0.3497,0.3587,0.3598,0.366,0.3703,0.362,0.3622,0.3386,0.3363,0.3553,0.3539,0.3665,0.3664,0.3664,0.3663,0,0.2477,0.2532,0.2598,0.27,0.2728,0.2783,0.2915,0.2987,0.3116,0.3246,0.3293,0.3459,0.3578,0.3654,0.3745,0.3734,0.3774,0.3774,0.3495,0.3463,0.3658,0.3646,0.3772,0.3772,0.3772,0.3772,0.3772,0,0.2467,0.2495,0.2593,0.2626,0.2675,0.2766,0.2827,0.2966,0.3048,0.3265,0.3317,0.3491,0.359,0.3739,0.3752,0.3795,0.3812,0.3562,0.3437,0.3686,0.3676,0.3663,0.3652,0.3173,0.3169,0.3165,0.3162,0,0.2456,0.2486,0.2524,0.2586,0.2648,0.2719,0.2817,0.2865,0.304,0.3142,0.3284,0.3386,0.3575,0.3528,0.362,0.3589,0.3536,0.3485,0.3835,0.3196,0.3133,0.3119,0.3125,0.3127,0.313,0.3133,0.3134,0.3136,0.2435,0.245,0.2489,0.2536,0.2596,0.2637,0.2651,0.2751,0.2832,0.2944,0.3128,0.3195,0.3305,0.3311,0.3245,0.3199,0.3421,0.3252,0.3259,0.3271,0.3195,0.3136,0.3116,0.3119,0.3122,0.3124,0.3127,0,0.2396,0.2405,0.2444,0.248,0.2488,0.2558,0.2613,0.2592,0.2612,0.2773,0.2865,0.2717,0.2743,0.2831,0.274,0.2779,0.2689,0.2641,0.2492,0.2533,0.2568,0.2448,0.2175,0.2171,0.2167,0.2164,0,0,0.2372,0.236,0.2367,0.2345,0.2374,0.2335,0.2326,0.231,0.2367,0.2355,0.2388,0.2625,0.2787,0.2433,0.2423,0.2285,0.2369,0.2194,0.2975,0.2844,0.2873,0.2962,0.2832,0,0,0,0,0]},{"header":{"parameterUnit":"m.s-1","parameterCategory":2,"la1":30.2991,"la2":30.254,"lo1":-89.0895,"lo2":-89.0444,"dy":0.0017,"dx":0.0017,"nx":28,"ny":28,"refTime":"2024-02-05T03:00:00:Z","depth":"2","parameterNumber":3,"parameterNumberName":"V-component_of_CURRENTS"},"data":[0,0,0,0,0,0,0,0,0,0,0,0,0,0,0,0,0,0,0,0,0,0,0,0,0,0,0,0,0,0,0,0,0,0,0,0,0,0,0,0,0,0,0,0,0,0,0,0,0,0,0,0,0,0,0,0,0,0,0.0088,0.0089,0,0.0028,0.0026,0.0023,-0.012,-0.0121,-0.0122,-0.0123,-0.0259,-0.0262,-0.0264,0,0,0,0,0,0,0,0,0,0,0,0,0,0.0044,0.0044,0.0088,0.0089,0.009,0.0028,0.0026,0.0023,-0.012,-0.0121,-0.0122,-0.0124,-0.0258,-0.0261,-0.0264,0,0,0,0,0,0,0,0,0,0,0,0,0,0.0011,0.0044,0.0087,0.0027,0.0023,0.0029,0.0025,0.0022,-0.012,-0.0121,-0.0123,-0.0124,-0.0257,-0.0261,-0.0265,-0.0259,0,0,-0.0277,-0.0279,0,0,0,0,0,0,0,0,0.0013,0.001,0.0035,0.0032,0.0027,-0.0021,-0.0038,-0.0068,-0.0119,-0.0088,-0.0123,-0.0125,-0.0171,-0.0182,-0.022,-0.0265,-0.0271,-0.0277,-0.028,-0.0282,-0.0283,0,0,0,0,0,0,0,0.0015,0.0012,0.0042,0.0037,0.0032,-0.0006,-0.0015,-0.0047,-0.0139,-0.0091,-0.0096,-0.0068,-0.0177,-0.0216,-0.0224,-0.0273,-0.0277,-0.0281,-0.0283,-0.0285,-0.0344,-0.0343,0,0,0,0,0,0,0.007,0.0014,0.0044,0.0042,0.0041,-0.0003,-0.0013,-0.0022,-0.0137,-0.0149,-0.0067,-0.0074,-0.0208,-0.0219,-0.0229,-0.026,-0.0282,-0.0285,-0.0288,-0.0345,-0.0344,-0.0343,0,0,0,0,0,0,0.0068,0.0071,0.0047,0.0046,0.0043,0.0002,-0.0008,-0.0022,-0.0084,-0.0113,-0.0132,-0.0114,-0.021,-0.0223,-0.0267,-0.0265,-0.0287,-0.0291,-0.0346,-0.0345,-0.0344,-0.0301,0,0,0,0,0,0,0.0066,0.007,0.0071,0.0049,0.0046,0.0025,-0.0004,-0.0021,-0.0052,-0.0064,-0.0159,-0.0172,-0.0212,-0.026,-0.0271,-0.0271,-0.0294,-0.0347,-0.0345,-0.0344,-0.0303,-0.0298,-0.0294,0,0,0,0,0,0.0064,0.0078,0.007,0.0075,0.0051,0.0026,0.0016,-0.0031,-0.0052,-0.0094,-0.0136,-0.0171,-0.0258,-0.0263,-0.0275,-0.0277,-0.0348,-0.0346,-0.0344,-0.0305,-0.0299,-0.0294,0,0,0,0,0,0,0.0064,0.0066,0.0057,0.007,0.0044,0.0009,-0.0001,-0.0035,-0.0105,-0.011,-0.0168,-0.0184,-0.0215,-0.0247,-0.0252,-0.0285,-0.0305,-0.0305,-0.0271,-0.0266,-0.0261,-0.0229,-0.0297,0,0,0,0,0,0.0074,0.0075,0.0065,0.0075,0.0067,0.0026,0.0013,-0.002,-0.006,-0.0096,-0.0138,-0.0178,-0.0212,-0.0242,-0.0271,-0.0298,-0.0322,-0.0302,-0.0297,-0.0293,-0.0272,-0.0317,-0.0315,-0.0337,-0.0337,-0.0337,0,0,0.0086,0.0091,0.0092,0.0076,0.0053,0.0051,0.0005,-0.0014,-0.0021,-0.0092,-0.0121,-0.0162,-0.0212,-0.0239,-0.0256,-0.0272,-0.0298,-0.0291,-0.0287,-0.0268,-0.0315,-0.0313,-0.0311,-0.0336,-0.0336,-0.0336,0,0,0.012,0.0103,0.0112,0.0095,0.0088,0.0063,0.0058,0.002,-0.0017,-0.0042,-0.0081,-0.0114,-0.0175,-0.0202,-0.0227,-0.021,-0.0266,-0.0229,-0.0193,-0.0237,-0.0236,-0.0235,-0.026,-0.0262,-0.0236,-0.0236,-0.0236,0,0.0135,0.0148,0.011,0.012,0.013,0.0073,0.0084,0.0045,0.0002,-0.0006,-0.0043,-0.0105,-0.015,-0.0175,-0.0173,-0.0199,-0.0235,-0.0216,-0.0232,-0.0232,-0.0232,-0.0258,-0.0261,-0.0233,-0.0234,-0.0234,-0.0234,0,0.0179,0.0184,0.0191,0.0185,0.0173,0.0174,0.0145,0.0122,0.0088,0.006,0.0026,-0.0038,-0.0078,-0.01,-0.0139,-0.0156,-0.0184,-0.0217,-0.0248,-0.0227,-0.0256,-0.026,-0.023,-0.0231,-0.0232,-0.0232,0,0,0.0225,0.0221,0.0225,0.0235,0.0211,0.021,0.0206,0.0187,0.0193,0.013,0.013,0.0061,0.0018,-0.001,-0.0067,-0.0107,-0.0142,-0.0165,-0.0168,-0.0192,-0.0239,-0.0246,-0.0251,-0.0198,-0.0199,-0.0199,-0.0259,0,0.0269,0.0307,0.0291,0.0324,0.0336,0.0298,0.0305,0.0283,0.0242,0.0227,0.0152,0.0128,0.005,0.0028,-0.003,-0.0104,-0.015,-0.0121,-0.0252,-0.0255,-0.0267,-0.0255,-0.0221,-0.0271,-0.0262,-0.0263,-0.0263,0,0.032,0.034,0.0382,0.04,0.0404,0.0418,0.0423,0.042,0.0379,0.0347,0.0291,0.0226,0.0167,0.0095,-0.0039,-0.0028,-0.0124,-0.019,-0.0195,-0.0214,-0.0269,-0.0291,-0.0278,-0.027,-0.0269,-0.0269,-0.0268,0,0.038,0.0407,0.0447,0.0453,0.0461,0.048,0.0484,0.0462,0.0474,0.0426,0.0425,0.032,0.0285,0.0144,-0.0006,-0.0033,-0.0148,-0.0204,-0.0298,-0.03,-0.0297,-0.0298,-0.0295,-0.0295,-0.0295,-0.0295,-0.0295,0,0.044,0.0471,0.0481,0.0506,0.0565,0.0547,0.0594,0.0583,0.0576,0.0618,0.049,0.0498,0.0292,0.0192,0.0032,-0.0133,-0.0129,-0.0275,-0.0314,-0.0281,-0.0279,-0.0299,-0.0298,-0.0297,-0.0297,-0.0296,-0.0296,0,0.0498,0.0501,0.055,0.0577,0.0595,0.0638,0.0679,0.0715,0.0691,0.0741,0.0736,0.0637,0.051,0.0301,0.0099,-0.0059,-0.0223,-0.0286,-0.022,-0.025,-0.0357,-0.0354,-0.04,-0.04,-0.0401,-0.0402,-0.0402,0,0.0531,0.0562,0.0614,0.0656,0.0672,0.0726,0.0776,0.0777,0.083,0.0844,0.0893,0.0781,0.0729,0.0417,0.0123,-0.0155,-0.0203,-0.0306,-0.0349,-0.0334,-0.0367,-0.0363,-0.0359,-0.0331,-0.033,-0.033,-0.033,0,0.0593,0.0609,0.0656,0.0742,0.0804,0.0879,0.0955,0.1018,0.1048,0.1088,0.1146,0.1106,0.0804,0.0528,0.0133,-0.0055,-0.0264,-0.0311,-0.0315,-0.0306,-0.0273,-0.0305,-0.0302,-0.0329,-0.0329,-0.0329,-0.0329,-0.0329,0.0644,0.0687,0.0749,0.0839,0.0918,0.1036,0.1116,0.1205,0.1312,0.1389,0.1354,0.1298,0.0964,0.0465,0.0116,-0.0255,-0.0245,-0.0372,-0.0371,-0.0371,-0.0348,-0.0318,-0.0377,-0.0378,-0.0378,-0.0378,-0.0379,0,0.0705,0.0752,0.084,0.0949,0.1059,0.1086,0.1242,0.1323,0.1466,0.1527,0.1555,0.1271,0.0938,0.0545,-0.0004,-0.0329,-0.036,-0.0425,-0.0397,-0.0395,-0.0394,-0.0373,-0.0409,-0.041,-0.0411,-0.0412,0,0,0.0732,0.0824,0.0871,0.1057,0.1141,0.1291,0.139,0.1507,0.1584,0.1644,0.1615,0.153,0.1066,0.0671,0.0218,-0.0101,-0.0172,-0.0159,-0.0097,-0.0007,-0.0003,-0.0322,-0.0282,0,0,0,0,0]}],[{"header":{"parameterUnit":"m.s-1","parameterCategory":2,"la1":30.2991,"la2":30.254,"lo1":-89.0895,"lo2":-89.0444,"dy":0.0017,"dx":0.0017,"nx":28,"ny":28,"refTime":"2024-02-05T03:00:00:Z","depth":"4","parameterNumber":2,"parameterNumberName":"U-component_of_CURRENTS"},"data":[0,0,0,0,0,0,0,0,0,0,0,0,0,0,0,0,0,0,0,0,0,0,0,0,0,0,0,0,0,0,0,0,0,0,0,0,0,0,0,0,0,0,0,0,0,0,0,0,0,0,0,0,0,0,0,0,0,0,0.1544,0.1544,0,0.1598,0.1599,0.16,0.1664,0.1665,0.1666,0.1667,0.1731,0.1732,0.1733,0,0,0,0,0,0,0,0,0,0,0,0,0,0.1462,0.1463,0.1544,0.1544,0.1545,0.1598,0.1599,0.16,0.1664,0.1665,0.1666,0.1667,0.173,0.1732,0.1733,0,0,0,0,0,0,0,0,0,0,0,0,0,0.1506,0.1464,0.1544,0.1582,0.1586,0.1598,0.1599,0.16,0.1664,0.1665,0.1666,0.1667,0.173,0.1731,0.1733,0.1716,0,0,0.1737,0.1738,0,0,0,0,0,0,0,0,0.1504,0.151,0.1576,0.158,0.1584,0.1624,0.1594,0.1639,0.1663,0.1636,0.1667,0.1668,0.1694,0.1699,0.1708,0.1719,0.1721,0.1737,0.1738,0.1738,0.1739,0,0,0,0,0,0,0,0.1501,0.1507,0.1567,0.1576,0.1581,0.1585,0.1593,0.1602,0.1658,0.1638,0.1643,0.1646,0.1697,0.1706,0.171,0.1722,0.1737,0.1738,0.1739,0.174,0.1859,0.1861,0,0,0,0,0,0,0.1492,0.1505,0.1565,0.1568,0.1545,0.1586,0.1595,0.1611,0.1658,0.1666,0.1645,0.1649,0.1703,0.1708,0.1712,0.1807,0.1738,0.174,0.1741,0.1857,0.1859,0.1862,0,0,0,0,0,0,0.149,0.1497,0.1563,0.1536,0.1544,0.1586,0.1604,0.1612,0.1653,0.1663,0.1672,0.1682,0.1705,0.171,0.1762,0.1805,0.174,0.1742,0.1854,0.1857,0.1861,0.1923,0,0,0,0,0,0,0.1488,0.1496,0.1524,0.1536,0.1545,0.1601,0.1602,0.1612,0.1651,0.1657,0.1696,0.1702,0.1706,0.176,0.1763,0.1806,0.1743,0.1851,0.1855,0.186,0.1918,0.1928,0.1937,0,0,0,0,0,0.1485,0.151,0.1525,0.1533,0.1576,0.1602,0.1609,0.1642,0.1651,0.1682,0.1712,0.1703,0.1791,0.1763,0.1766,0.181,0.1849,0.1854,0.1859,0.1914,0.1926,0.1937,0,0,0,0,0,0,0.1487,0.1519,0.1536,0.1571,0.1599,0.1613,0.1644,0.1656,0.1702,0.172,0.1723,0.1732,0.1797,0.1795,0.1763,0.1861,0.1821,0.1828,0.1862,0.1873,0.1883,0.1887,0.1744,0,0,0,0,0,0.1499,0.1532,0.1555,0.1588,0.1605,0.1628,0.1648,0.1672,0.1701,0.1724,0.1749,0.1782,0.1814,0.1837,0.1865,0.1907,0.1911,0.1943,0.1952,0.196,0.1969,0.2002,0.2014,0.1879,0.1879,0.1879,0,0,0.1506,0.1529,0.1549,0.1592,0.1617,0.1648,0.1646,0.169,0.1727,0.1721,0.1792,0.1816,0.1834,0.1894,0.1923,0.1901,0.2006,0.1967,0.1973,0.1978,0.2008,0.2021,0.2033,0.1883,0.1882,0.1882,0,0,0.1524,0.1563,0.1594,0.1623,0.167,0.1685,0.1703,0.1742,0.178,0.1836,0.185,0.1899,0.1945,0.1971,0.1985,0.206,0.2056,0.2081,0.2131,0.2163,0.2174,0.2183,0.2222,0.2234,0.2084,0.2085,0.2085,0,0.1537,0.1575,0.1607,0.1642,0.1669,0.1703,0.1738,0.1777,0.1832,0.1866,0.1875,0.1963,0.198,0.2041,0.2081,0.2081,0.2104,0.2081,0.2173,0.2183,0.2191,0.2228,0.2241,0.2088,0.2088,0.2087,0.2087,0,0.1568,0.161,0.1632,0.1689,0.1724,0.1764,0.1811,0.1867,0.1909,0.1941,0.2027,0.2056,0.2108,0.2127,0.213,0.2209,0.2209,0.2179,0.2138,0.2208,0.2244,0.2256,0.2093,0.2092,0.2091,0.209,0,0,0.1558,0.1639,0.1649,0.1682,0.1755,0.1781,0.1858,0.1924,0.1981,0.2045,0.2111,0.2178,0.2204,0.2223,0.2237,0.227,0.2358,0.2265,0.2265,0.2293,0.245,0.2324,0.2325,0.235,0.2352,0.2353,0.2455,0,0.1574,0.1637,0.1679,0.1743,0.1775,0.184,0.1903,0.1975,0.2043,0.2122,0.2168,0.2241,0.2237,0.228,0.2315,0.2349,0.2392,0.2334,0.2386,0.2388,0.2259,0.2335,0.236,0.2464,0.2467,0.2469,0.247,0,0.158,0.1623,0.1685,0.1769,0.1793,0.1846,0.1955,0.2018,0.2131,0.2192,0.2271,0.2312,0.2395,0.2371,0.2464,0.2434,0.246,0.2472,0.2476,0.2342,0.2284,0.2377,0.2492,0.249,0.2488,0.2487,0.2486,0,0.1533,0.1622,0.1672,0.1702,0.1804,0.1863,0.193,0.2045,0.211,0.2248,0.2313,0.2401,0.2466,0.2505,0.2552,0.2525,0.2639,0.2591,0.2502,0.2494,0.2546,0.2534,0.2656,0.2655,0.2655,0.2655,0.2655,0,0.1512,0.1552,0.1662,0.169,0.1763,0.1849,0.1947,0.2035,0.2161,0.2236,0.235,0.2419,0.2508,0.2577,0.2593,0.2592,0.2675,0.2529,0.2513,0.2573,0.2564,0.2555,0.2542,0.2659,0.2658,0.2657,0.2657,0,0.1436,0.1513,0.1571,0.1695,0.174,0.1794,0.1945,0.2007,0.2153,0.2257,0.2308,0.2463,0.2563,0.2632,0.2711,0.2638,0.2648,0.2628,0.2721,0.2705,0.2474,0.2464,0.2529,0.2525,0.2522,0.2519,0.2517,0,0.1397,0.1422,0.1555,0.1597,0.166,0.1762,0.1826,0.1984,0.2047,0.226,0.2288,0.2457,0.2542,0.2558,0.2641,0.2671,0.2638,0.2621,0.2516,0.2484,0.2463,0.2457,0.2451,0.2513,0.2512,0.2511,0.251,0,0.1315,0.1377,0.1433,0.1516,0.1594,0.1666,0.1776,0.1814,0.1988,0.2136,0.2228,0.2299,0.2416,0.2479,0.2535,0.2541,0.2611,0.2589,0.2593,0.2495,0.2465,0.2446,0.2443,0.25,0.2501,0.2502,0.2503,0,0.1257,0.127,0.1353,0.1419,0.1505,0.1545,0.1623,0.1707,0.1794,0.2022,0.205,0.2238,0.239,0.2416,0.246,0.247,0.2424,0.2319,0.2337,0.2349,0.2243,0.2176,0.2123,0,0,0,0,0,0.1188,0.1197,0.1245,0.1313,0.1394,0.1448,0.157,0.1651,0.1823,0.1835,0.1939,0.2041,0.214,0.2239,0.2215,0.2385,0.2429,0.2345,0.2315,0.2442,0.2454,0.2345,0,0,0,0,0,0,0.1143,0.1182,0.1202,0.121,0.1241,0.1312,0.139,0.1509,0.1527,0.1712,0.178,0.1918,0.2046,0.2139,0.2178,0.2206,0.2144,0.2461,0.2456,0.2435,0.2446,0.2456,0.2348,0,0,0,0,0]},{"header":{"parameterUnit":"m.s-1","parameterCategory":2,"la1":30.2991,"la2":30.254,"lo1":-89.0895,"lo2":-89.0444,"dy":0.0017,"dx":0.0017,"nx":28,"ny":28,"refTime":"2024-02-05T03:00:00:Z","depth":"4","parameterNumber":3,"parameterNumberName":"V-component_of_CURRENTS"},"data":[0,0,0,0,0,0,0,0,0,0,0,0,0,0,0,0,0,0,0,0,0,0,0,0,0,0,0,0,0,0,0,0,0,0,0,0,0,0,0,0,0,0,0,0,0,0,0,0,0,0,0,0,0,0,0,0,0,0,0.0237,0.0237,0,0.0219,0.0218,0.0218,0.0177,0.0176,0.0176,0.0175,0.017,0.017,0.017,0,0,0,0,0,0,0,0,0,0,0,0,0,0.023,0.023,0.0237,0.0237,0.0237,0.0219,0.0218,0.0218,0.0177,0.0176,0.0176,0.0175,0.0169,0.017,0.017,0,0,0,0,0,0,0,0,0,0,0,0,0,0.022,0.023,0.0237,0.0218,0.0217,0.0219,0.0218,0.0218,0.0177,0.0176,0.0176,0.0175,0.0169,0.017,0.017,0.0185,0,0,0.0171,0.0171,0,0,0,0,0,0,0,0,0.0221,0.022,0.0221,0.022,0.0218,0.0204,0.0214,0.0209,0.0177,0.0187,0.0175,0.0175,0.0186,0.0185,0.0176,0.0184,0.0184,0.0171,0.0171,0.0172,0.0172,0,0,0,0,0,0,0,0.0221,0.022,0.0225,0.0221,0.0219,0.0209,0.0206,0.0212,0.0187,0.0186,0.0184,0.019,0.0184,0.0175,0.0175,0.0184,0.0171,0.0171,0.0172,0.0172,0.0172,0.0172,0,0,0,0,0,0,0.0234,0.0221,0.0226,0.0225,0.0223,0.021,0.0207,0.0205,0.0186,0.0184,0.019,0.0188,0.0175,0.0175,0.0175,0.0184,0.0172,0.0172,0.0172,0.0173,0.0172,0.0172,0,0,0,0,0,0,0.0234,0.0234,0.0226,0.0227,0.0226,0.0211,0.0209,0.0205,0.02,0.019,0.0187,0.0191,0.0175,0.0175,0.0173,0.0184,0.0172,0.0172,0.0173,0.0173,0.0172,0.0206,0,0,0,0,0,0,0.0234,0.0234,0.0239,0.0227,0.0226,0.0229,0.021,0.0205,0.0207,0.0203,0.019,0.0188,0.0174,0.0172,0.0173,0.0184,0.0173,0.0173,0.0173,0.0172,0.0206,0.0207,0.0209,0,0,0,0,0,0.0233,0.0244,0.0239,0.024,0.0232,0.023,0.0228,0.0213,0.0207,0.0205,0.0191,0.0189,0.017,0.0172,0.0173,0.0185,0.0173,0.0173,0.0172,0.0205,0.0207,0.0209,0,0,0,0,0,0,0.0246,0.0241,0.0235,0.0244,0.0239,0.0225,0.0228,0.0221,0.0207,0.0207,0.0191,0.0188,0.0187,0.0181,0.0184,0.0181,0.017,0.017,0.0194,0.0196,0.0198,0.0212,0.0173,0,0,0,0,0,0.0252,0.0257,0.0249,0.0258,0.0256,0.0244,0.0244,0.0235,0.0225,0.0218,0.0208,0.0196,0.0187,0.0187,0.0176,0.0185,0.016,0.0189,0.0191,0.0193,0.0203,0.0169,0.0169,0.0171,0.0171,0.0171,0,0,0.0265,0.0262,0.0266,0.0262,0.0255,0.026,0.0241,0.0245,0.025,0.0223,0.0224,0.0204,0.0188,0.0185,0.0186,0.0184,0.0175,0.0192,0.0194,0.0204,0.0169,0.0168,0.0168,0.017,0.017,0.017,0,0,0.0289,0.0283,0.0293,0.0291,0.0289,0.028,0.0285,0.0273,0.0265,0.0266,0.0241,0.0227,0.0221,0.0204,0.0198,0.0205,0.0182,0.0203,0.0232,0.0198,0.0198,0.0198,0.0151,0.0146,0.0208,0.0208,0.0208,0,0.0302,0.0314,0.0297,0.0306,0.0315,0.0292,0.0309,0.0298,0.0287,0.0287,0.0271,0.0247,0.0229,0.0228,0.0221,0.0212,0.0184,0.0228,0.0201,0.02,0.02,0.0152,0.0146,0.021,0.021,0.021,0.0209,0,0.0331,0.0343,0.0351,0.0352,0.0356,0.0368,0.0356,0.0353,0.0343,0.0331,0.0323,0.0288,0.0276,0.0263,0.0246,0.0236,0.0213,0.0204,0.02,0.0202,0.0151,0.0144,0.0212,0.0212,0.0211,0.0211,0,0,0.0355,0.0368,0.0372,0.039,0.0386,0.0396,0.0401,0.0402,0.0414,0.0384,0.0394,0.0358,0.0335,0.0325,0.0297,0.0267,0.0223,0.0238,0.0236,0.0198,0.0138,0.0115,0.0105,0.0211,0.021,0.021,0.01,0,0.0384,0.0417,0.0414,0.0454,0.0473,0.046,0.0472,0.0469,0.0454,0.0452,0.0411,0.0406,0.0361,0.0358,0.0318,0.0254,0.0211,0.0253,0.0137,0.0133,0.0118,0.0098,0.0208,0.0095,0.0093,0.0092,0.0091,0,0.0415,0.0436,0.0482,0.0516,0.0523,0.0544,0.0565,0.0574,0.0556,0.0543,0.0519,0.0482,0.0437,0.0398,0.0282,0.0312,0.0229,0.017,0.0164,0.013,0.0099,0.0095,0.0079,0.008,0.0081,0.0082,0.0083,0,0.045,0.0486,0.0531,0.0543,0.0572,0.0596,0.0611,0.0607,0.0629,0.0606,0.061,0.0541,0.0517,0.041,0.0279,0.028,0.0143,0.0128,0.0023,0.0019,0.0059,0.0061,0.0039,0.0039,0.0039,0.004,0.004,0,0.0486,0.0524,0.0558,0.0585,0.0648,0.065,0.0709,0.0704,0.0714,0.0742,0.0668,0.0661,0.052,0.0423,0.0295,0.0137,0.0148,0.0023,-0.0008,0.0073,0.0078,0.0053,0.0057,0.0035,0.0036,0.0037,0.0038,0,0.0521,0.0541,0.0601,0.0646,0.0671,0.072,0.0784,0.0819,0.0813,0.0845,0.0843,0.0753,0.0614,0.0455,0.0273,0.0165,0.0014,-0.0047,0.0043,0.0019,-0.0095,-0.0089,-0.0176,-0.0178,-0.0179,-0.018,-0.0181,0,0.0541,0.0576,0.0652,0.0697,0.0726,0.0798,0.085,0.0874,0.0908,0.0897,0.0912,0.0795,0.0708,0.0435,0.0258,-0.0,-0.0036,-0.0117,-0.0103,-0.0094,-0.0117,-0.0108,-0.01,-0.0184,-0.0184,-0.0185,-0.0185,0,0.0578,0.0609,0.0657,0.0747,0.0818,0.0897,0.0965,0.0998,0.102,0.1019,0.0963,0.0816,0.0653,0.0432,0.0228,0.0047,-0.0063,-0.0133,-0.0131,-0.0119,-0.0105,-0.0123,-0.0114,-0.019,-0.0189,-0.0189,-0.0188,0,0.0606,0.0643,0.0706,0.0787,0.0878,0.0956,0.0996,0.1028,0.1062,0.104,0.1019,0.0839,0.0739,0.0455,0.0272,0.0085,0.0034,-0.0018,-0.0024,-0.002,0.0056,0.0099,0.0047,0,0,0,0,0,0.0622,0.0661,0.0736,0.0822,0.0912,0.0966,0.1052,0.1081,0.1105,0.1074,0.1048,0.089,0.0606,0.0485,0.0292,0.023,-0.0005,-0.0003,-0.0069,-0.0217,-0.0212,-0.015,0,0,0,0,0,0,0.0631,0.0698,0.073,0.0835,0.0896,0.1,0.1058,0.1079,0.1059,0.1051,0.0903,0.0836,0.056,0.0711,0.0284,0.0228,0.0158,-0.0133,-0.0137,-0.0221,-0.0215,-0.0211,-0.0146,0,0,0,0,0]}]]